| time (UTC) | temp F | wind direction | speed MPH | gust MPH | rain 1hr in | rain 24hr in | rain mn in | humidity % | barometer mb |
| 20260509043005 | 74 | 345 | 0.0 | 2.0 | 0.00 | 0.00 | 0.00 | 31 | 1022.6 |
| 20260509042026 | 73 | 357 | 1.0 | 2.0 | 0.00 | 0.00 | 0.00 | 31 | 1022.6 |
| 20260509041004 | 74 | 317 | 1.0 | 4.0 | 0.00 | 0.00 | 0.00 | 31 | 1022.6 |
| 20260509040004 | 73 | 340 | 1.0 | 4.0 | 0.00 | 0.00 | 0.00 | 30 | 1022.6 |
| 20260509035025 | 73 | 273 | 1.0 | 7.0 | 0.00 | 0.00 | 0.00 | 32 | 1022.6 |
| 20260509034026 | 73 | 327 | 1.0 | 4.0 | 0.00 | 0.00 | 0.00 | 31 | 1022.6 |
| 20260509033005 | 73 | 253 | 2.0 | 6.0 | 0.00 | 0.00 | 0.00 | 34 | 1022.7 |
| 20260509032005 | 73 | 336 | 0.0 | 4.0 | 0.00 | 0.00 | 0.00 | 33 | 1022.7 |
| 20260509031007 | 74 | 303 | 1.0 | 4.0 | 0.00 | 0.00 | 0.00 | 33 | 1022.8 |
| 20260509030005 | 73 | 272 | 1.0 | 7.0 | 0.00 | 0.00 | 0.00 | 34 | 1023.0 |
| 20260509025005 | 73 | 331 | 0.0 | 5.0 | 0.00 | 0.00 | 0.00 | 34 | 1023.1 |
| 20260509024005 | 73 | 299 | 1.0 | 5.0 | 0.00 | 0.00 | 0.00 | 34 | 1023.3 |
| 20260509023005 | 72 | 306 | 1.0 | 6.0 | 0.00 | 0.00 | 0.00 | 36 | 1023.5 |
| 20260509022026 | 72 | 322 | 1.0 | 4.0 | 0.00 | 0.00 | 0.00 | 34 | 1023.5 |
| 20260509021006 | 72 | 314 | 1.0 | 6.0 | 0.00 | 0.00 | 0.00 | 35 | 1023.6 |
| 20260509020005 | 72 | 323 | 1.0 | 4.0 | 0.00 | 0.00 | 0.00 | 35 | 1023.9 |
| 20260509015006 | 71 | 37 | 1.0 | 2.0 | 0.00 | 0.00 | 0.00 | 34 | 1024.0 |
| 20260509014007 | 71 | 43 | 0.0 | 2.0 | 0.00 | 0.00 | 0.00 | 37 | 1024.1 |
| 20260509013005 | 70 | 348 | 1.0 | 3.0 | 0.00 | 0.00 | 0.00 | 36 | 1024.1 |
| 20260509012005 | 70 | 11 | 1.0 | 3.0 | 0.00 | 0.00 | 0.00 | 36 | 1024.3 |
| 20260509011005 | 70 | 28 | 0.0 | 2.0 | 0.00 | 0.00 | 0.00 | 39 | 1024.5 |
| 20260509010005 | 68 | 59 | 0.0 | 1.0 | 0.00 | 0.00 | 0.00 | 41 | 1024.6 |
| 20260509005005 | 67 | 2 | 0.0 | 2.0 | 0.00 | 0.00 | 0.00 | 42 | 1024.6 |
| 20260509004005 | 67 | 60 | 0.0 | 1.0 | 0.00 | 0.00 | 0.00 | 44 | 1024.7 |
| 20260509003006 | 66 | 152 | 0.0 | 2.0 | 0.00 | 0.00 | 0.00 | 42 | 1024.8 |
| 20260509002005 | 66 | 60 | 0.0 | 1.0 | 0.00 | 0.00 | 0.00 | 43 | 1024.8 |
| 20260509001005 | 64 | 161 | 1.0 | 3.0 | 0.00 | 0.00 | 0.00 | 47 | 1024.9 |
| 20260509000005 | 63 | 207 | 0.0 | 4.0 | 0.00 | 0.00 | 0.00 | 46 | 1024.9 |
| 20260508235007 | 62 | 221 | 0.0 | 2.0 | 0.00 | 0.00 | 0.00 | 48 | 1024.9 |
| 20260508234006 | 60 | 250 | 0.0 | 3.0 | 0.00 | 0.00 | 0.00 | 55 | 1024.9 |
| 20260508233004 | 58 | 237 | 1.0 | 3.0 | 0.00 | 0.00 | 0.00 | 58 | 1025.0 |
| 20260508232005 | 57 | 329 | 0.0 | 1.0 | 0.00 | 0.00 | 0.00 | 59 | 1025.1 |
| 20260508231005 | 55 | 317 | 0.0 | 1.0 | 0.00 | 0.00 | 0.00 | 61 | 1025.1 |
| 20260508230005 | 55 | 250 | 0.0 | 1.0 | 0.00 | 0.00 | 0.00 | 63 | 1025.1 |
| 20260508225005 | 53 | 187 | 0.0 | 1.0 | 0.00 | 0.00 | 0.00 | 65 | 1025.1 |
| 20260508224005 | 51 | 199 | 0.0 | 1.0 | 0.00 | 0.00 | 0.00 | 69 | 1025.1 |
| 20260508223007 | 49 | 180 | 0.0 | 1.0 | 0.00 | 0.00 | 0.00 | 71 | 1025.0 |
| 20260508222005 | 47 | 180 | 0.0 | 2.0 | 0.00 | 0.00 | 0.00 | 74 | 1024.9 |
| 20260508221005 | 46 | 191 | 0.0 | 2.0 | 0.00 | 0.00 | 0.00 | 76 | 1024.8 |
| 20260508220027 | 44 | 199 | 0.0 | 2.0 | 0.00 | 0.00 | 0.00 | 79 | 1024.7 |
| 20260508215005 | 42 | 196 | 0.0 | 1.0 | 0.00 | 0.00 | 0.00 | 83 | 1024.6 |
| 20260508214005 | 40 | 196 | 0.0 | 1.0 | 0.00 | 0.00 | 0.00 | 87 | 1024.6 |
| 20260508213005 | 38 | 181 | 0.0 | 2.0 | 0.00 | 0.00 | 0.00 | 90 | 1024.6 |
| 20260508212004 | 36 | 0 | 0.0 | 0.0 | 0.00 | 0.00 | 0.00 | 91 | 1024.5 |
| 20260508211005 | 34 | 0 | 0.0 | 0.0 | 0.00 | 0.00 | 0.00 | 92 | 1024.4 |
| 20260508210005 | 34 | 0 | 0.0 | 0.0 | 0.00 | 0.00 | 0.00 | 92 | 1024.3 |
| 20260508205026 | 33 | 0 | 0.0 | 0.0 | 0.00 | 0.00 | 0.00 | 92 | 1024.2 |
| 20260508204006 | 33 | 181 | 0.0 | 1.0 | 0.00 | 0.00 | 0.00 | 92 | 1024.1 |
| 20260508203005 | 33 | 177 | 0.0 | 1.0 | 0.00 | 0.00 | 0.00 | 92 | 1024.0 |
| 20260508202025 | 33 | 176 | 0.0 | 1.0 | 0.00 | 0.00 | 0.00 | 92 | 1024.0 |
| 20260508201006 | 34 | 0 | 0.0 | 0.0 | 0.00 | 0.00 | 0.00 | 92 | 1023.9 |
| 20260508200004 | 34 | 0 | 0.0 | 0.0 | 0.00 | 0.00 | 0.00 | 91 | 1023.9 |
| 20260508195025 | 34 | 180 | 0.0 | 1.0 | 0.00 | 0.00 | 0.00 | 91 | 1023.6 |
| 20260508194005 | 34 | 175 | 0.0 | 2.0 | 0.00 | 0.00 | 0.00 | 91 | 1023.5 |
| 20260508193006 | 34 | 147 | 0.0 | 1.0 | 0.00 | 0.00 | 0.00 | 91 | 1023.3 |
| 20260508192006 | 34 | 117 | 0.0 | 1.0 | 0.00 | 0.00 | 0.00 | 91 | 1023.1 |
| 20260508191004 | 34 | 0 | 0.0 | 0.0 | 0.00 | 0.00 | 0.00 | 91 | 1023.1 |
| 20260508190004 | 35 | 0 | 0.0 | 0.0 | 0.00 | 0.00 | 0.00 | 91 | 1023.1 |
| 20260508185007 | 35 | 0 | 0.0 | 0.0 | 0.00 | 0.00 | 0.00 | 91 | 1022.9 |
| 20260508184025 | 36 | 49 | 0.0 | 1.0 | 0.00 | 0.00 | 0.00 | 91 | 1022.9 |
| 20260508183004 | 36 | 0 | 0.0 | 0.0 | 0.00 | 0.00 | 0.00 | 90 | 1022.8 |
| 20260508182006 | 36 | 44 | 0.0 | 1.0 | 0.00 | 0.00 | 0.00 | 90 | 1023.0 |
| 20260508181027 | 36 | 44 | 0.0 | 1.0 | 0.00 | 0.00 | 0.00 | 90 | 1022.8 |
| 20260508180006 | 36 | 98 | 0.0 | 1.0 | 0.00 | 0.00 | 0.00 | 90 | 1022.8 |
| 20260508175004 | 36 | 0 | 0.0 | 0.0 | 0.00 | 0.00 | 0.00 | 90 | 1022.7 |
| 20260508174006 | 36 | 180 | 0.0 | 1.0 | 0.00 | 0.00 | 0.00 | 90 | 1022.6 |
| 20260508173006 | 36 | 0 | 0.0 | 0.0 | 0.00 | 0.00 | 0.00 | 90 | 1022.6 |
| 20260508172004 | 36 | 0 | 0.0 | 0.0 | 0.00 | 0.00 | 0.00 | 89 | 1022.6 |
| 20260508171004 | 37 | 178 | 0.0 | 1.0 | 0.00 | 0.00 | 0.00 | 89 | 1022.6 |
| 20260508170005 | 37 | 184 | 0.0 | 1.0 | 0.00 | 0.00 | 0.00 | 89 | 1022.4 |
| 20260508165004 | 37 | 0 | 0.0 | 0.0 | 0.00 | 0.00 | 0.00 | 89 | 1022.5 |
| 20260508164004 | 36 | 0 | 0.0 | 0.0 | 0.00 | 0.00 | 0.00 | 88 | 1022.6 |
| 20260508163004 | 36 | 0 | 0.0 | 0.0 | 0.00 | 0.00 | 0.00 | 87 | 1022.7 |
| 20260508162004 | 37 | 0 | 0.0 | 0.0 | 0.00 | 0.00 | 0.00 | 88 | 1022.7 |
| 20260508161025 | 36 | 190 | 0.0 | 1.0 | 0.00 | 0.00 | 0.00 | 87 | 1022.8 |
| 20260508160006 | 37 | 179 | 0.0 | 1.0 | 0.00 | 0.00 | 0.00 | 87 | 1022.8 |
| 20260508155004 | 37 | 173 | 0.0 | 1.0 | 0.00 | 0.00 | 0.00 | 87 | 1022.8 |
| 20260508154006 | 38 | 196 | 0.0 | 1.0 | 0.00 | 0.00 | 0.00 | 86 | 1022.8 |
| 20260508153006 | 38 | 221 | 0.0 | 1.0 | 0.00 | 0.00 | 0.00 | 86 | 1022.9 |
| 20260508152004 | 38 | 0 | 0.0 | 0.0 | 0.00 | 0.00 | 0.00 | 86 | 1022.9 |
| 20260508151025 | 38 | 0 | 0.0 | 0.0 | 0.00 | 0.00 | 0.00 | 85 | 1022.9 |
| 20260508150005 | 38 | 0 | 0.0 | 0.0 | 0.00 | 0.00 | 0.00 | 84 | 1023.0 |
| 20260508145004 | 39 | 195 | 0.0 | 1.0 | 0.00 | 0.00 | 0.00 | 84 | 1022.9 |
| 20260508144006 | 39 | 179 | 0.0 | 1.0 | 0.00 | 0.00 | 0.00 | 83 | 1022.8 |
| 20260508143006 | 39 | 171 | 0.0 | 1.0 | 0.00 | 0.00 | 0.00 | 83 | 1022.9 |
| 20260508142004 | 38 | 0 | 0.0 | 0.0 | 0.00 | 0.00 | 0.00 | 83 | 1022.9 |
| 20260508141027 | 38 | 0 | 0.0 | 0.0 | 0.00 | 0.00 | 0.00 | 83 | 1023.0 |
| 20260508140025 | 38 | 244 | 0.0 | 1.0 | 0.00 | 0.00 | 0.00 | 83 | 1023.0 |
| 20260508135006 | 38 | 243 | 0.0 | 1.0 | 0.00 | 0.00 | 0.00 | 82 | 1023.0 |
| 20260508134006 | 38 | 236 | 0.0 | 1.0 | 0.00 | 0.00 | 0.00 | 81 | 1023.1 |
| 20260508133004 | 38 | 233 | 0.0 | 1.0 | 0.00 | 0.00 | 0.00 | 81 | 1023.1 |
| 20260508132004 | 39 | 239 | 0.0 | 1.0 | 0.00 | 0.00 | 0.00 | 81 | 1023.2 |
| 20260508131004 | 39 | 224 | 0.0 | 1.0 | 0.00 | 0.00 | 0.00 | 81 | 1023.2 |
| 20260508130005 | 40 | 198 | 0.0 | 1.0 | 0.00 | 0.00 | 0.00 | 80 | 1023.2 |
| 20260508125025 | 40 | 186 | 0.0 | 1.0 | 0.00 | 0.00 | 0.00 | 80 | 1023.2 |
| 20260508124004 | 40 | 198 | 0.0 | 1.0 | 0.00 | 0.00 | 0.00 | 80 | 1023.3 |
| 20260508123004 | 40 | 191 | 0.0 | 1.0 | 0.00 | 0.00 | 0.00 | 80 | 1023.3 |
| 20260508122004 | 41 | 180 | 0.0 | 1.0 | 0.00 | 0.00 | 0.00 | 81 | 1023.2 |
| 20260508121006 | 41 | 196 | 0.0 | 1.0 | 0.00 | 0.00 | 0.00 | 81 | 1023.2 |
| 20260508120005 | 41 | 0 | 0.0 | 0.0 | 0.00 | 0.00 | 0.00 | 80 | 1023.3 |
| 20260508115027 | 42 | 188 | 0.0 | 1.0 | 0.00 | 0.00 | 0.00 | 79 | 1023.4 |
| 20260508114004 | 42 | 184 | 0.0 | 1.0 | 0.00 | 0.00 | 0.00 | 79 | 1023.2 |
| 20260508113005 | 42 | 0 | 0.0 | 0.0 | 0.00 | 0.00 | 0.00 | 79 | 1023.3 |
| 20260508112004 | 42 | 0 | 0.0 | 0.0 | 0.00 | 0.00 | 0.00 | 77 | 1023.3 |
| 20260508111025 | 43 | 0 | 0.0 | 0.0 | 0.00 | 0.00 | 0.00 | 76 | 1023.2 |
| 20260508110004 | 43 | 0 | 0.0 | 0.0 | 0.00 | 0.00 | 0.00 | 75 | 1023.2 |
| 20260508105004 | 44 | 0 | 0.0 | 0.0 | 0.00 | 0.00 | 0.00 | 73 | 1023.1 |
| 20260508104004 | 44 | 184 | 0.0 | 1.0 | 0.00 | 0.00 | 0.00 | 73 | 1023.0 |
| 20260508103006 | 44 | 182 | 0.0 | 1.0 | 0.00 | 0.00 | 0.00 | 72 | 1023.0 |
| 20260508102006 | 45 | 180 | 0.0 | 1.0 | 0.00 | 0.00 | 0.00 | 72 | 1023.0 |
| 20260508101004 | 46 | 0 | 0.0 | 0.0 | 0.00 | 0.00 | 0.00 | 71 | 1022.8 |
| 20260508100006 | 46 | 0 | 0.0 | 0.0 | 0.00 | 0.00 | 0.00 | 70 | 1022.8 |
| 20260508095004 | 47 | 180 | 0.0 | 1.0 | 0.00 | 0.00 | 0.00 | 68 | 1022.7 |
| 20260508094006 | 47 | 180 | 0.0 | 1.0 | 0.00 | 0.00 | 0.00 | 68 | 1022.5 |
| 20260508093005 | 48 | 0 | 0.0 | 0.0 | 0.00 | 0.00 | 0.00 | 66 | 1022.3 |
| 20260508092026 | 48 | 0 | 0.0 | 0.0 | 0.00 | 0.00 | 0.00 | 65 | 1022.2 |
| 20260508091025 | 49 | 180 | 0.0 | 1.0 | 0.00 | 0.00 | 0.00 | 64 | 1022.1 |
| 20260508090004 | 50 | 180 | 0.0 | 1.0 | 0.00 | 0.00 | 0.00 | 62 | 1022.2 |
| 20260508085004 | 51 | 0 | 0.0 | 0.0 | 0.00 | 0.00 | 0.00 | 59 | 1022.0 |
| 20260508084005 | 53 | 178 | 0.0 | 2.0 | 0.00 | 0.00 | 0.00 | 56 | 1022.0 |
| 20260508083026 | 54 | 198 | 1.0 | 2.0 | 0.00 | 0.00 | 0.00 | 55 | 1021.9 |
| 20260508082004 | 54 | 201 | 0.0 | 2.0 | 0.00 | 0.00 | 0.00 | 54 | 1021.8 |
| 20260508081025 | 55 | 198 | 0.0 | 3.0 | 0.00 | 0.00 | 0.00 | 53 | 1021.7 |
| 20260508080005 | 55 | 209 | 1.0 | 4.0 | 0.00 | 0.00 | 0.00 | 52 | 1021.6 |
| 20260508075025 | 56 | 194 | 0.0 | 5.0 | 0.00 | 0.00 | 0.00 | 51 | 1021.6 |
| 20260508074005 | 56 | 200 | 1.0 | 3.0 | 0.00 | 0.00 | 0.00 | 49 | 1021.5 |
| 20260508073004 | 57 | 201 | 1.0 | 7.0 | 0.00 | 0.00 | 0.00 | 48 | 1021.3 |
| 20260508072004 | 58 | 192 | 1.0 | 4.0 | 0.00 | 0.00 | 0.00 | 47 | 1021.2 |
| 20260508071004 | 59 | 190 | 1.0 | 5.0 | 0.00 | 0.00 | 0.00 | 46 | 1021.1 |
| 20260508070006 | 60 | 188 | 1.0 | 8.0 | 0.00 | 0.00 | 0.00 | 44 | 1020.9 |
| 20260508065003 | 60 | 190 | 1.0 | 7.0 | 0.00 | 0.00 | 0.00 | 43 | 1020.8 |
| 20260508064026 | 61 | 198 | 2.0 | 10.0 | 0.00 | 0.00 | 0.00 | 42 | 1020.8 |
| 20260508063004 | 62 | 207 | 2.0 | 10.0 | 0.00 | 0.00 | 0.00 | 41 | 1020.7 |
| 20260508062005 | 62 | 212 | 3.0 | 14.0 | 0.00 | 0.00 | 0.00 | 41 | 1020.6 |
| 20260508061005 | 63 | 208 | 1.0 | 9.0 | 0.00 | 0.00 | 0.00 | 40 | 1020.4 |
| 20260508060024 | 63 | 225 | 3.0 | 11.0 | 0.00 | 0.00 | 0.00 | 40 | 1020.4 |
| 20260508055004 | 63 | 232 | 5.0 | 17.0 | 0.00 | 0.00 | 0.00 | 41 | 1020.3 |
| 20260508054004 | 64 | 229 | 3.0 | 12.0 | 0.00 | 0.00 | 0.00 | 41 | 1020.3 |
| 20260508053004 | 64 | 230 | 5.0 | 14.0 | 0.00 | 0.00 | 0.00 | 40 | 1020.1 |
| 20260508052025 | 64 | 228 | 3.0 | 13.0 | 0.00 | 0.00 | 0.00 | 41 | 1020.2 |
| 20260508051004 | 64 | 248 | 2.0 | 13.0 | 0.00 | 0.00 | 0.00 | 41 | 1020.1 |
| 20260508050025 | 64 | 235 | 4.0 | 15.0 | 0.00 | 0.00 | 0.00 | 40 | 1020.1 |
| 20260508045004 | 65 | 232 | 4.0 | 15.0 | 0.00 | 0.00 | 0.00 | 39 | 1019.9 |
| 20260508044004 | 65 | 222 | 5.0 | 16.0 | 0.00 | 0.00 | 0.00 | 39 | 1020.0 |